Powrót do katalogu

THORAD AGENA D DEB

AktywnySSO
NORAD 42492·DEBRIS·🇺🇸 United States

Wystrzelony Apr 8, 1970 z Vandenberg Space Force Base

Loading…

Następne Przeloty (najbliższe 24 godziny)

TLE

Starzejące sięSource: Space-Track

Epoka: Sep 9, 2026, 19:08 UTC

1 42492U 70025QW  26252.79756978  .00000229  00000-0  34534-3 0  9995
2 42492  99.2800  97.2409 0004894 247.0658 175.6905 13.63044758624139

Śledź THORAD AGENA D DEB w czasie rzeczywistym z AllMySat

Download on the App Store